This is the latest recevied weather packets stored in our database for station/object EA2FT-7. If no packets are shown the sender has not sent any weather packets the latest 1 day(s).
| Time | Temp. | Humidity | Pressure | Rain* | Wind** | Luminosity | Snow |
|---|---|---|---|---|---|---|---|
| 1777815493 | 28.89° C | 34% | 989.3 hPa | - | - | - | - |
| 1777815192 | 29.44° C | 34% | 989.3 hPa | - | - | - | - |
| 1777814892 | 29.44° C | 34% | 989.5 hPa | - | - | - | - |
| 1777814592 | 29.44° C | 34% | 989.6 hPa | - | - | - | - |
| 1777814292 | 29.44° C | 34% | 989.7 hPa | - | - | - | - |
| 1777813692 | 29.44° C | 33% | 989.3 hPa | - | - | - | - |
| 1777813392 | 30° C | 33% | 989.2 hPa | - | - | - | - |
| 1777813092 | 30° C | 33% | 989.6 hPa | - | - | - | - |
| 1777812792 | 30° C | 33% | 989.5 hPa | - | - | - | - |
| 1777812492 | 30.56° C | 33% | 989.5 hPa | - | - | - | - |
| 1777812335 | 30.56° C | 32% | 989.5 hPa | - | - | - | - |
| 1777812180 | 30.56° C | 32% | 989.5 hPa | - | - | - | - |
| 1777811870 | 30.56° C | 33% | 989.4 hPa | - | - | - | - |
| 1777811570 | 30.56° C | 33% | 989.4 hPa | - | - | - | - |
| 1777811270 | 30.56° C | 33% | 989.3 hPa | - | - | - | - |
| 1777810970 | 31.11° C | 32% | 989.2 hPa | - | - | - | - |
| 1777810670 | 31.11° C | 32% | 989.1 hPa | - | - | - | - |
| 1777810363 | 31.11° C | 33% | 989.1 hPa | - | - | - | - |
| 1777810063 | 32.22° C | 32% | 989.5 hPa | - | - | - | - |
| 1777809753 | 31.67° C | 32% | 989.6 hPa | - | - | - | - |
| 1777809453 | 31.67° C | 32% | 989.5 hPa | - | - | - | - |
| 1777809153 | 32.22° C | 32% | 989.6 hPa | - | - | - | - |
| 1777808853 | 32.78° C | 31% | 989.9 hPa | - | - | - | - |
| 1777808553 | 33.33° C | 31% | 990 hPa | - | - | - | - |
| 1777808253 | 35° C | 31% | 990 hPa | - | - | - | - |
* Rain since midnight (hover to see other rain measurements)
** Current wind speed in m/s (hover to see current wind gust speed)